Austin, TX

8:07 PM CST on February 06, 2016 (GMT -0600)
Austin Bergstrom International

Weather History for KAUS - November, 2014

Change the Weather History Date:

Sunday, November 2, 2014

  Actual Average Record
Temperature  
Mean Temperature 57 °F 64 °F  
Max Temperature 76 °F 77 °F 87 °F (1950)
Min Temperature 38 °F 50 °F 29 °F (1951)
Degree Days  
Heating Degree Days 8 4  
Month to date heating degree days 18 8  
Since 1 July heating degree days 20 59  
Cooling Degree Days 0 2  
Month to date cooling degree days 0 5  
Year to date cooling degree days 2814 2708  
Growing Degree Days 7 (Base 50)    
Moisture  
Dew Point 45 °F    
Average Humidity 66    
Maximum Humidity 93    
Minimum Humidity 38    
Precipitation  
Precipitation 0.00 in 0.12 in 2.30 in (2000)
Month to date precipitation 0.00 0.25  
Year to date precipitation 20.71 29.74  
Snow  
Snow 0.00 in - - ()
Month to date snowfall 0.0  
Since 1 July snowfall 0.0  
Since 1 September snowfall 0.0  
Snow Depth 0.00 in    
Sea Level Pressure  
Sea Level Pressure 30.25 in    
Wind  
Wind Speed 9 mph (SSE)    
Max Wind Speed 22 mph    
Max Gust Speed 27 mph    
Visibility 10 miles    
Events      
T = Trace of Precipitation, MM = Missing Value Source: NWS Daily Summary

Daily Weather History Graph

Daily Weather History Graph

Search for Another Location

Airport or City:

Trip Planner

Search our weather history database for the weather conditions in past years. The results will help you decide how hot, cold, wet, or windy it might be!

Date:

Astronomy

Nov. 02, 2014 Rise Set
Actual Time 6:45 AM CST 5:42 PM CST
Civil Twilight 6:20 AM CST 6:07 PM CST
Nautical Twilight 5:52 AM CST 6:35 PM CST
Astronomical Twilight 5:24 AM CST 7:03 PM CST
Moon 2:56 PM CST (11/2) 2:10 AM CST (11/2)
Length of Visible Light 11h 46m
Length of Day
10h 56m
Waxing Gibbous, 79% of the Moon is Illuminated
Nov 2
Waxing Gibbous
Nov 6
Full
Nov 14
Last Quarter
Nov 22
New
Nov 29
First Quarter

Hourly Weather History & Observations

Time (CST) Temp. Windchill Dew Point Humidity Pressure Visibility Wind Dir Wind Speed Gust Speed Precip Events Conditions
12:53 AM 45.0 °F 43.5 °F 37.9 °F 76% 30.30 in 10.0 mi South 3.5 mph - N/A   Clear
1:53 AM 42.1 °F - 39.0 °F 89% 30.29 in 10.0 mi Calm Calm - N/A   Clear
1:53 AM 42.1 °F - 39.0 °F 89% 30.28 in 10.0 mi Calm Calm - N/A   Partly Cloudy
2:53 AM 41.0 °F - 39.0 °F 93% 30.28 in 10.0 mi Calm Calm - N/A   Clear
3:53 AM 41.0 °F - 39.0 °F 93% 30.28 in 10.0 mi Calm Calm - N/A   Scattered Clouds
4:53 AM 39.0 °F - 37.0 °F 93% 30.28 in 10.0 mi Calm Calm - N/A   Clear
5:53 AM 39.0 °F - 37.9 °F 96% 30.30 in 10.0 mi Calm Calm - N/A   Partly Cloudy
6:53 AM 42.1 °F 38.4 °F 37.9 °F 85% 30.32 in 10.0 mi NE 5.8 mph - N/A   Mostly Cloudy
7:53 AM 48.0 °F - 39.9 °F 74% 30.32 in 10.0 mi East 4.6 mph - N/A   Mostly Cloudy
8:53 AM 55.0 °F - 43.0 °F 64% 30.34 in 10.0 mi SE 8.1 mph - N/A   Mostly Cloudy
9:53 AM 62.1 °F - 46.9 °F 58% 30.32 in 10.0 mi SE 10.4 mph - N/A   Mostly Cloudy
10:53 AM 68.0 °F - 50.0 °F 52% 30.30 in 10.0 mi SSE 10.4 mph - N/A   Overcast
11:53 AM 72.0 °F - 51.1 °F 48% 30.26 in 10.0 mi South 13.8 mph - N/A   Mostly Cloudy
12:53 PM 73.9 °F - 50.0 °F 43% 30.22 in 10.0 mi South 17.3 mph - N/A   Mostly Cloudy
1:53 PM 73.9 °F - 48.9 °F 41% 30.20 in 10.0 mi SSE 15.0 mph 23.0 mph N/A   Mostly Cloudy
2:53 PM 75.0 °F - 48.9 °F 40% 30.18 in 10.0 mi South 12.7 mph 20.7 mph 0.00 in   Mostly Cloudy
3:53 PM 75.0 °F - 48.0 °F 38% 30.17 in 10.0 mi South 17.3 mph 24.2 mph N/A   Mostly Cloudy
4:53 PM 73.4 °F - 48.2 °F 41% 30.18 in 10.0 mi SSE 18.4 mph - N/A   Mostly Cloudy
5:53 PM 70.0 °F - 48.9 °F 47% 30.18 in 10.0 mi SSE 11.5 mph - N/A   Mostly Cloudy
6:53 PM 66.9 °F - 48.9 °F 52% 30.19 in 10.0 mi SSE 10.4 mph - N/A   Scattered Clouds
7:53 PM 64.9 °F - 50.0 °F 58% 30.20 in 10.0 mi SSE 10.4 mph - N/A   Scattered Clouds
8:53 PM 63.0 °F - 50.0 °F 63% 30.21 in 10.0 mi SSE 8.1 mph - N/A   Scattered Clouds
9:53 PM 62.1 °F - 51.1 °F 67% 30.21 in 10.0 mi South 8.1 mph - N/A   Mostly Cloudy
10:53 PM 64.0 °F - 52.0 °F 65% 30.18 in 10.0 mi SSE 11.5 mph - N/A   Mostly Cloudy